Wind_Speed
39 38 36 33 30 28 26 25 26 28 29 31 31 31 32 33 30 27 26 24 24 27 28 24 18 14 11 8 2 6 6 8 14 14 16 18 21 21 22 25 22 15 5 3 3
41 40 39 38 36 31 25 25 26 28 29 30 31 31 31 31 30 26 23 23 25 25 25 19 13 11 9 5 4 7 8 11 15 16 20 20 20 20 21 22 16 15 9 6 7
38 37 37 37 36 32 28 25 28 29 31 32 33 32 29 28 25 23 23 21 22 25 18 10 9 9 5 5 8 10 12 16 19 20 23 23 22 22 23 16 9 11 10 7 6
33 33 34 34 34 32 30 28 32 32 33 35 36 32 29 26 25 24 21 20 21 20 16 10 9 6 5 4 4 8 12 15 18 20 24 25 22 20 20 14 8 4 7 9 8
31 30 30 31 32 34 34 32 37 37 37 37 36 33 35 24 30 26 20 19 18 16 14 12 7 4 5 4 5 8 12 17 22 23 21 21 17 14 12 12 11 7 5 3 5
27 28 28 29 30 32 37 40 38 37 36 35 34 35 35 29 25 21 17 19 19 14 11 8 5 5 4 2 5 9 12 13 15 16 18 17 16 14 11 13 14 13 10 6 6
24 26 26 25 27 27 31 36 37 36 34 33 32 31 29 27 24 16 14 13 12 13 10 7 5 3 1 3 7 9 14 17 18 18 19 22 21 17 16 12 11 13 13 11 11
21 20 20 22 23 24 26 27 30 32 32 31 29 28 25 22 19 16 15 11 10 9 8 5 2 3 5 7 9 12 15 15 19 24 23 24 26 25 19 14 12 12 15 15 15
19 19 18 18 19 21 22 23 22 24 25 26 25 23 22 20 16 13 12 12 11 8 5 2 3 5 8 10 11 12 13 14 17 17 17 19 21 23 25 19 10 12 17 16 18
19 18 18 17 16 16 18 19 20 19 18 19 18 17 15 14 13 12 9 6 4 2 2 3 5 6 7 9 11 13 15 17 17 17 16 17 19 22 22 23 18 10 12 18 17
22 21 19 18 16 16 16 17 18 17 16 16 15 15 14 13 11 9 8 6 5 5 5 6 7 10 11 9 12 17 18 19 20 18 16 18 17 20 22 17 18 15 8 17 22
26 25 24 22 21 20 18 18 17 16 16 16 14 13 12 12 11 11 10 10 10 11 11 12 11 12 13 14 11 14 17 19 22 25 23 18 20 20 21 21 19 16 14 9 18
28 28 28 27 25 24 23 22 22 21 19 19 18 17 16 15 14 15 15 15 16 18 17 17 17 18 18 18 18 17 21 21 22 24 28 26 23 27 26 22 20 20 17 17 13
32 31 31 30 29 29 28 27 26 25 24 23 23 23 21 21 21 21 22 22 21 22 22 21 21 23 23 22 25 23 25 26 26 27 29 33 30 28 29 29 24 21 21 20 21
38 36 35 34 33 32 32 32 31 29 29 28 29 28 28 29 27 30 28 30 28 27 29 26 24 28 30 27 30 29 29 31 31 30 31 32 38 35 33 33 30 28 25 25 23
43 42 40 40 39 38 37 36 36 35 34 34 35 34 34 34 33 35 33 34 33 33 35 33 30 33 37 33 33 35 36 36 36 36 34 35 38 37 38 37 34 32 32 33 30
48 47 46 46 45 43 42 42 42 41 40 39 40 40 40 39 38 39 40 40 41 40 40 38 39 39 40 41 41 40 41 42 41 39 40 39 41 38 39 40 40 37 37 38 36
56 53 52 52 50 49 49 48 49 47 45 45 46 46 46 46 46 46 46 47 48 47 47 47 48 47 46 48 49 47 47 48 47 45 46 44 45 44 42 41 42 41 43 41 39
61 59 60 58 57 55 54 54 55 53 53 53 52 51 52 52 52 52 52 53 54 54 54 54 55 55 54 54 55 54 53 52 51 50 50 51 50 50 46 44 42 43 44 44 42
66 64 63 63 62 62 60 62 61 61 60 60 60 59 58 58 59 59 59 60 60 60 60 61 61 63 62 60 61 61 59 58 55 54 54 54 53 52 52 47 44 44 43 41 38
69 68 68 69 68 67 67 67 67 67 66 65 65 65 65 65 66 66 65 67 66 67 67 68 68 70 67 68 68 65 63 63 64 62 61 58 58 55 56 50 47 46 43 45 43
73 72 71 70 68 68 71 70 71 69 70 70 70 70 70 70 69 69 71 74 73 74 73 73 72 74 73 73 71 71 70 70 68 68 65 63 62 60 57 54 53 49 46 48 49
77 76 75 73 72 72 71 71 71 72 72 72 72 72 71 71 72 70 72 75 74 76 76 76 74 76 78 77 76 72 75 73 73 72 69 68 68 66 62 59 57 56 50 48 48
77 78 78 77 76 76 75 75 75 76 76 76 76 77 76 75 75 75 77 78 78 79 79 80 80 78 79 83 80 75 78 77 77 76 75 73 72 71 67 62 59 56 53 50 49
68 70 72 73 74 76 76 77 77 75 76 77 76 78 78 78 78 76 80 80 80 81 81 82 81 83 82 82 83 84 82 81 81 79 79 76 76 72 71 63 57 56 53 52 51
56 56 57 61 69 74 75 75 74 72 72 73 74 74 73 74 76 75 74 76 79 78 81 81 80 83 82 84 83 84 83 83 83 81 80 77 74 77 74 66 56 53 51 52 49
53 51 49 53 56 60 62 63 62 63 61 59 58 57 58 59 62 64 66 67 70 74 77 79 81 81 81 83 83 81 82 85 86 82 80 77 74 75 74 70 62 55 49 49 49
Wind_Direction
99 100 100 102 105 111 120 130 135 138 138 139 135 132 125 128 134 137 145 155 160 163 169 176 175 182 194 208 248 239 255 304 332 323 324 323 317 309 311 324 321 317 265 269 277
101 101 99 98 97 99 112 121 131 137 140 140 139 136 132 134 132 134 139 150 155 159 159 162 177 200 222 227 232 257 294 301 305 305 308 313 312 307 308 320 325 322 277 241 271
105 98 96 95 91 90 95 118 126 133 135 136 138 136 139 139 133 130 128 139 153 155 161 171 186 210 222 243 258 278 295 307 310 312 315 312 306 295 298 298 318 339 310 259 260
111 104 96 92 88 89 97 109 129 127 130 132 133 133 132 137 137 132 132 138 151 165 173 167 192 177 192 211 257 291 308 314 325 323 318 314 309 308 304 281 282 321 338 352 274
107 106 101 94 89 83 89 103 127 124 126 129 131 131 109 139 134 129 115 130 140 145 145 137 132 163 223 252 297 323 332 337 322 315 318 325 312 312 289 280 291 281 287 319 343
111 107 102 98 91 86 88 98 119 121 125 128 128 130 135 133 129 129 126 126 133 136 143 132 126 111 94 52 339 337 323 317 323 320 326 340 350 336 317 282 277 287 288 274 270
121 116 112 107 103 96 92 96 114 122 125 129 133 134 131 135 143 150 134 123 130 129 127 133 148 139 173 285 290 326 332 332 338 341 350 354 6 1 346 305 286 274 274 266 267
136 132 126 120 117 112 106 102 104 118 126 126 131 136 142 146 149 142 147 146 134 141 151 165 236 314 349 338 338 338 336 339 350 0 357 353 354 355 4 348 302 269 265 262 251
157 151 143 132 127 126 124 118 114 113 118 125 131 139 148 155 158 154 154 158 160 163 158 140 30 2 341 338 339 336 347 355 358 360 349 344 339 344 351 357 353 286 255 265 247
180 174 166 156 146 138 136 135 134 133 133 135 136 138 142 150 156 162 164 164 168 181 269 325 328 318 312 317 325 332 347 343 342 347 346 340 337 334 339 339 350 356 272 250 252
195 195 191 182 174 168 162 158 157 158 158 158 161 165 167 174 181 193 203 215 235 249 265 274 278 284 290 302 319 330 338 332 328 335 341 334 338 334 328 333 337 343 342 252 241
202 203 205 203 196 192 191 187 186 184 183 186 188 190 194 197 205 217 225 238 243 245 249 256 257 275 286 298 308 316 322 326 325 327 331 330 333 329 328 324 324 327 340 318 260
216 215 214 213 212 213 212 209 207 207 207 210 213 211 215 222 227 235 243 248 252 257 264 272 279 283 287 296 304 311 314 316 317 321 323 325 327 326 329 329 316 316 321 332 317
226 227 224 224 223 221 221 224 223 219 221 224 224 227 230 237 240 248 252 259 262 265 266 266 278 284 291 298 302 306 305 308 311 315 319 322 322 322 322 326 323 311 320 322 327
229 231 233 234 232 230 231 231 234 235 235 236 236 240 240 244 247 253 258 262 265 270 275 275 283 289 289 296 296 299 301 302 304 309 311 315 313 318 317 320 319 319 316 316 314
232 233 237 239 239 239 239 240 241 242 242 243 248 249 250 254 254 259 262 267 269 274 278 279 283 285 287 290 290 292 295 297 299 303 305 307 306 308 312 312 313 313 313 310 308
234 236 238 240 241 242 243 243 246 246 245 245 248 254 257 260 262 264 267 269 272 274 275 279 280 281 283 287 284 286 289 292 294 297 299 301 300 300 304 305 307 310 310 306 308
234 235 238 240 241 241 243 246 248 249 249 249 250 253 256 259 262 264 268 270 272 276 278 278 279 279 281 281 283 284 285 287 290 294 296 296 296 296 297 300 303 305 304 302 303
239 238 239 240 242 243 244 248 250 251 252 252 252 253 257 260 263 264 266 269 271 271 274 276 278 276 277 278 279 280 282 285 288 290 293 294 296 295 296 297 300 298 298 301 302
244 243 242 244 244 245 246 248 249 250 251 253 254 255 257 260 262 264 265 266 267 269 271 274 275 277 279 279 281 281 284 285 285 287 288 291 293 293 292 297 298 293 296 297 296
246 247 247 249 250 251 252 254 254 255 255 255 256 257 256 256 258 260 263 265 266 268 269 271 273 275 277 278 280 282 282 283 285 286 287 288 290 288 291 295 293 294 295 294 293
247 248 249 250 250 251 252 253 255 256 257 258 259 260 260 261 262 263 264 266 267 268 269 271 273 274 275 276 277 279 280 280 283 283 284 286 287 287 291 292 293 292 291 291 291
247 248 249 250 251 252 254 255 257 258 259 260 261 262 264 265 266 266 267 267 268 269 270 271 272 272 274 274 273 276 278 279 279 280 283 283 285 286 288 290 290 290 289 288 288
248 248 249 250 251 252 253 255 256 258 260 261 263 264 264 266 266 268 268 268 268 268 269 269 270 270 270 271 273 271 273 275 275 277 278 280 281 283 284 286 287 288 287 285 287
251 251 252 252 252 252 253 254 256 258 260 262 264 265 266 267 267 267 268 270 269 269 269 269 269 269 268 268 270 272 271 271 272 274 275 278 280 281 281 281 282 282 283 283 284
252 253 253 250 249 249 251 253 255 257 259 262 264 266 268 269 269 269 269 268 269 269 267 267 267 266 266 266 265 267 270 271 271 271 273 275 277 279 280 280 278 279 280 279 278
255 254 253 250 248 249 251 253 255 258 261 262 264 265 265 267 269 271 271 268 268 267 264 265 264 264 264 266 266 267 269 270 270 271 272 274 275 276 276 278 277 276 275 275 277
Height
10964 10964 10964 10964 10965 10967 10969 10972 10976 10980 10985 10990 10994 10998 11002 11006 11010 11014 11019 11023 11026 11029 11034 11039 11043 11046 11047 11048 11050 11050 11050 11050 11049 11047 11045 11043 11042 11041 11039 11037 11035 11033 11032 11032 11032
10971 10971 10971 10971 10972 10973 10974 10976 10979 10983 10988 10993 10998 11002 11006 11010 11014 11018 11022 11026 11029 11033 11037 11041 11044 11046 11047 11048 11050 11050 11049 11048 11047 11046 11045 11043 11041 11040 11038 11036 11033 11032 11030 11030 11031
10978 10977 10977 10977 10978 10978 10978 10980 10983 10987 10992 10996 11001 11006 11010 11014 11019 11023 11026 11029 11033 11036 11040 11042 11044 11046 11048 11049 11049 11049 11049 11048 11047 11045 11043 11040 11038 11036 11034 11034 11032 11031 11030 11029 11030
10984 10983 10984 10984 10984 10983 10983 10983 10987 10991 10996 11001 11006 11011 11015 11019 11023 11026 11029 11031 11034 11037 11040 11043 11044 11047 11047 11048 11049 11049 11048 11046 11044 11042 11040 11036 11034 11032 11031 11031 11030 11029 11029 11029 11029
10990 10989 10989 10990 10990 10989 10988 10987 10991 10996 11001 11006 11011 11015 11021 11023 11026 11028 11032 11034 11036 11039 11042 11044 11045 11046 11047 11048 11048 11047 11046 11044 11042 11041 11038 11034 11032 11030 11029 11028 11027 11027 11026 11025 11026
10995 10995 10996 10996 10996 10996 10996 10995 10999 11002 11007 11011 11015 11019 11022 11027 11029 11032 11034 11036 11038 11040 11042 11043 11044 11045 11046 11047 11047 11046 11045 11045 11042 11039 11036 11033 11030 11027 11026 11024 11024 11024 11024 11024 11024
10999 11000 11001 11002 11003 11003 11003 11005 11006 11009 11012 11016 11019 11021 11024 11028 11030 11033 11035 11037 11039 11040 11042 11043 11045 11046 11046 11046 11046 11045 11043 11041 11039 11036 11032 11029 11027 11025 11023 11022 11021 11020 11019 11021 11022
11002 11003 11005 11006 11007 11009 11010 11011 11013 11014 11017 11020 11023 11025 11028 11030 11032 11034 11036 11038 11040 11042 11043 11044 11045 11045 11045 11044 11043 11042 11041 11039 11034 11030 11028 11025 11024 11023 11023 11020 11017 11018 11017 11017 11018
11003 11005 11007 11009 11011 11013 11015 11017 11018 11020 11022 11024 11027 11029 11031 11033 11035 11037 11038 11040 11041 11042 11043 11044 11044 11043 11043 11043 11041 11040 11038 11036 11033 11031 11028 11025 11022 11020 11019 11018 11016 11014 11014 11013 11013
11003 11006 11008 11011 11013 11015 11018 11020 11022 11024 11025 11027 11029 11031 11033 11034 11036 11037 11038 11039 11040 11040 11040 11041 11041 11042 11042 11041 11038 11037 11035 11033 11032 11031 11028 11025 11021 11018 11017 11015 11014 11012 11010 11010 11010
11001 11004 11007 11010 11013 11016 11018 11020 11023 11025 11026 11029 11031 11032 11034 11035 11037 11037 11038 11039 11039 11040 11040 11040 11041 11041 11040 11040 11037 11033 11032 11032 11030 11030 11027 11023 11019 11017 11015 11015 11012 11010 11009 11007 11005
10999 11002 11005 11008 11011 11014 11016 11018 11020 11023 11025 11027 11029 11030 11032 11033 11035 11035 11036 11036 11037 11038 11039 11039 11040 11039 11038 11037 11037 11035 11032 11030 11028 11025 11024 11022 11018 11016 11013 11011 11011 11008 11006 11005 11002
10994 10998 11001 11005 11008 11011 11013 11016 11018 11020 11022 11024 11026 11027 11029 11030 11031 11032 11032 11034 11034 11035 11035 11035 11035 11035 11035 11034 11033 11032 11030 11028 11026 11022 11018 11016 11016 11012 11009 11008 11007 11005 11003 11000 10999
10989 10992 10996 10999 11003 11006 11009 11011 11013 11016 11018 11020 11022 11023 11025 11026 11027 11027 11028 11028 11029 11030 11031 11032 11031 11030 11029 11029 11027 11028 11026 11024 11022 11019 11015 11009 11011 11009 11005 11003 11002 11000 10998 10995 10993
10982 10985 10988 10992 10996 10999 11002 11005 11007 11010 11013 11015 11016 11018 11020 11021 11023 11021 11023 11023 11024 11025 11024 11026 11026 11023 11022 11025 11022 11022 11021 11019 11017 11014 11012 11008 11002 11001 11000 10997 10996 10993 10991 10989 10988
10974 10977 10981 10984 10988 10991 10994 10997 10999 11002 11005 11007 11008 11010 11012 11013 11015 11015 11017 11016 11017 11018 11016 11017 11020 11018 11015 11017 11016 11015 11014 11012 11010 11009 11007 11004 10999 10998 10993 10990 10990 10987 10984 10982 10982
10965 10969 10971 10974 10978 10981 10985 10988 10989 10992 10996 10999 11000 11000 11002 11005 11006 11006 11007 11008 11007 11009 11008 11009 11009 11010 11009 11008 11008 11008 11006 11004 11003 11003 11000 10998 10993 10993 10989 10986 10982 10980 10977 10974 10973
10955 10958 10960 10963 10967 10971 10974 10977 10978 10982 10986 10989 10991 10992 10994 10995 10996 10997 10998 10998 10997 10998 10998 10998 10997 10998 10999 10998 10996 10999 10998 10996 10995 10995 10991 10990 10985 10984 10983 10981 10977 10973 10969 10967 10965
10941 10947 10950 10953 10956 10960 10964 10967 10968 10971 10974 10977 10979 10982 10983 10984 10985 10987 10988 10987 10986 10986 10987 10987 10985 10985 10987 10987 10987 10987 10988 10988 10986 10985 10983 10978 10976 10972 10973 10971 10971 10967 10962 10959 10956
10926 10933 10937 10940 10944 10948 10952 10952 10954 10958 10961 10964 10966 10969 10970 10973 10973 10973 10974 10974 10974 10974 10975 10974 10974 10971 10972 10974 10973 10973 10975 10974 10975 10974 10971 10969 10966 10963 10961 10961 10961 10957 10954 10952 10950
10911 10916 10922 10925 10931 10936 10938 10939 10942 10945 10947 10951 10952 10954 10957 10959 10960 10960 10960 10958 10962 10961 10962 10960 10962 10957 10962 10959 10957 10961 10961 10960 10958 10959 10959 10958 10953 10953 10949 10951 10948 10946 10945 10941 10940
10895 10901 10905 10910 10915 10919 10921 10925 10925 10930 10931 10934 10936 10937 10938 10943 10945 10947 10946 10942 10945 10943 10945 10945 10947 10944 10945 10943 10944 10943 10943 10943 10944 10943 10945 10944 10941 10938 10939 10938 10935 10935 10935 10931 10928
10878 10883 10888 10893 10899 10902 10905 10908 10910 10911 10913 10916 10918 10920 10924 10926 10927 10930 10928 10925 10927 10924 10925 10926 10930 10928 10924 10925 10926 10930 10926 10927 10926 10926 10930 10929 10928 10924 10926 10925 10924 10920 10921 10919 10916
10860 10865 10870 10876 10880 10884 10888 10891 10893 10893 10894 10898 10900 10902 10905 10908 10908 10910 10906 10906 10906 10906 10906 10905 10907 10910 10908 10900 10904 10913 10908 10909 10909 10910 10911 10911 10910 10908 10910 10912 10911 10909 10906 10906 10904
10842 10847 10852 10858 10862 10865 10868 10871 10874 10876 10878 10879 10880 10882 10886 10888 10887 10890 10884 10885 10884 10884 10884 10885 10887 10884 10887 10885 10886 10885 10888 10890 10889 10891 10890 10892 10890 10893 10891 10897 10898 10895 10893 10893 10892
10827 10831 10834 10838 10842 10846 10850 10853 10856 10858 10860 10862 10863 10865 10866 10866 10866 10868 10870 10863 10862 10865 10860 10861 10866 10861 10864 10862 10865 10865 10868 10868 10867 10871 10871 10873 10877 10868 10869 10875 10881 10881 10880 10879 10878
10812 10816 10820 10823 10826 10829 10833 10837 10840 10842 10844 10846 10846 10847 10848 10848 10848 10847 10848 10846 10843 10840 10840 10840 10839 10840 10843 10838 10840 10849 10851 10843 10845 10849 10851 10855 10854 10853 10852 10853 10860 10864 10866 10865 10864